Location: ?
(35.6144°N, 139.6873°E)
Time: 14:41:32
(UTC+00:00)

Okean 3 Rocket - Pass Details

Date: 23 May 2024
Orbit: 611 x 642 km, 82.5° (Epoch: 15 June)

Event Time Altitude Azimuth Distance (km) Brightness Sun altitude
Rises 11:39:34 0° 359° (N) 2,889 7.7 -19.6°
Reaches altitude 10° 11:41:52 10° 4° (N) 1,977 6.7 -19.9°
Maximum altitude 11:46:08 51° 81° (E) 767 3.8 -20.5°
Enters shadow 11:46:32 49° 102° (ESE) 787 3.7 -20.5°
